Land O' Lakes, WI

2:42 PM CST on November 19, 2017 (GMT -0600)
Kings Land O'Lakes

Weather History for KLNL - March, 2013

Change the Weather History Date:

Saturday, March 9, 2013

  Actual Average (KEGV) Record (KEGV)
Temperature  
Mean Temperature 30 °F -  
Max Temperature 33 °F 43 °F 54 °F (1977)
Min Temperature 28 °F 16 °F -11 °F (2003)
Degree Days  
Heating Degree Days 34    
Moisture  
Dew Point 28 °F    
Average Humidity 88    
Maximum Humidity 100    
Minimum Humidity 64    
Precipitation  
Precipitation 0.03 in - - ()
Sea Level Pressure  
Sea Level Pressure 29.94 in    
Wind  
Wind Speed 6 mph (SSE)    
Max Wind Speed 14 mph    
Max Gust Speed 22 mph    
Visibility 7 miles    
Events Snow    
Averages and records for this station are not official NWS values.
T = Trace of Precipitation, MM = Missing Value Source: NWS Daily Summary

Daily Weather History Graph

Daily Weather History Graph

Search for Another Location

Airport or City:

Trip Planner

Search our weather history database for the weather conditions in past years. The results will help you decide how hot, cold, wet, or windy it might be!

Date:

Astronomy

Mar. 09, 2013 Rise Set
Actual Time 6:20 AM CST 5:54 PM CST
Civil Twilight 5:50 AM CST 6:24 PM CST
Nautical Twilight 5:15 AM CST 6:59 PM CST
Astronomical Twilight 4:40 AM CST 7:34 PM CST
Moon 4:50 AM CST (3/9) 3:52 PM CST (3/9)
Length of Visible Light 12h 34m
Length of Day
11h 34m
Waning Crescent, 5% of the Moon is Illuminated
Mar 9
Waning Crescent
Mar 11
New
Mar 19
First Quarter
Mar 27
Full
Apr 2
Last Quarter

Hourly Weather History & Observations

Time (CST) Temp. Windchill Dew Point Humidity Pressure Visibility Wind Dir Wind Speed Gust Speed Precip Events Conditions
12:15 AM 28.4 °F 23.3 °F 23.0 °F 80% 30.19 in 10.0 mi South 4.6 mph - N/A   Clear
12:35 AM 28.4 °F 23.3 °F 23.0 °F 80% 30.19 in 10.0 mi South 4.6 mph - N/A   Clear
12:55 AM 28.4 °F 23.3 °F 23.0 °F 80% 30.18 in 10.0 mi South 4.6 mph - N/A   Clear
1:15 AM 28.4 °F 24.6 °F 23.0 °F 80% 30.18 in 10.0 mi South 3.5 mph - N/A   Clear
1:35 AM 28.4 °F 24.6 °F 23.0 °F 80% 30.16 in 10.0 mi South 3.5 mph - N/A   Clear
1:55 AM 28.4 °F 23.3 °F 23.0 °F 80% 30.15 in 10.0 mi South 4.6 mph - N/A   Clear
2:15 AM 28.4 °F 23.3 °F 23.0 °F 80% 30.15 in 10.0 mi South 4.6 mph - N/A   Clear
2:35 AM 28.4 °F 23.3 °F 23.0 °F 80% 30.14 in 10.0 mi SSW 4.6 mph - N/A   Clear
2:55 AM 28.4 °F 22.2 °F 23.0 °F 80% 30.13 in 10.0 mi South 5.8 mph - N/A   Clear
3:15 AM 28.4 °F 23.3 °F 23.0 °F 80% 30.12 in 10.0 mi South 4.6 mph - N/A   Clear
3:35 AM 28.4 °F - 23.0 °F 80% 30.12 in 10.0 mi Calm Calm - N/A   Clear
3:55 AM 28.4 °F 23.3 °F 23.0 °F 80% 30.11 in 10.0 mi South 4.6 mph - N/A   Clear
4:15 AM 30.2 °F 26.7 °F 23.0 °F 75% 30.11 in 10.0 mi South 3.5 mph - N/A   Clear
4:35 AM 30.2 °F 25.4 °F 23.0 °F 75% 30.10 in 10.0 mi SSE 4.6 mph - N/A   Clear
4:55 AM 30.2 °F 24.3 °F 23.0 °F 75% 30.10 in 10.0 mi South 5.8 mph - N/A   Clear
5:15 AM 30.2 °F 24.3 °F 23.0 °F 75% 30.10 in 10.0 mi South 5.8 mph - N/A   Mostly Cloudy
5:35 AM 30.2 °F 25.4 °F 23.0 °F 75% 30.10 in 10.0 mi South 4.6 mph - N/A   Overcast
5:55 AM 30.2 °F 24.3 °F 21.2 °F 69% 30.09 in 10.0 mi South 5.8 mph - N/A   Overcast
6:15 AM 30.2 °F 24.3 °F 21.2 °F 69% 30.09 in 10.0 mi SSE 5.8 mph - N/A   Overcast
6:35 AM 30.2 °F 24.3 °F 21.2 °F 69% 30.08 in 10.0 mi South 5.8 mph - N/A   Overcast
6:55 AM 30.2 °F 24.3 °F 21.2 °F 69% 30.07 in 10.0 mi South 5.8 mph - N/A   Overcast
7:15 AM 32.0 °F 26.4 °F 21.2 °F 64% 30.07 in 10.0 mi South 5.8 mph - N/A   Overcast
7:35 AM 32.0 °F 25.6 °F 21.2 °F 64% 30.07 in 10.0 mi South 6.9 mph - N/A   Overcast
7:55 AM 32.0 °F 27.5 °F 21.2 °F 64% 30.07 in 10.0 mi SSW 4.6 mph - N/A   Overcast
8:15 AM 32.0 °F 27.5 °F 23.0 °F 69% 30.06 in 10.0 mi South 4.6 mph - N/A   Overcast
8:35 AM 32.0 °F 25.6 °F 23.0 °F 69% 30.04 in 10.0 mi SSE 6.9 mph - N/A   Overcast
8:55 AM 32.0 °F 26.4 °F 24.8 °F 75% 30.03 in 3.0 mi SSE 5.8 mph - N/A Snow Light Snow
9:15 AM 30.2 °F 23.4 °F 26.6 °F 86% 30.02 in 0.5 mi SSE 6.9 mph - N/A Snow Snow
9:35 AM 30.2 °F 26.7 °F 28.4 °F 93% 30.02 in 0.5 mi SSE 3.5 mph - N/A Snow Snow
9:55 AM 30.2 °F 23.4 °F 28.4 °F 93% 30.00 in 3.0 mi SE 6.9 mph - N/A Snow Light Snow
10:15 AM 32.0 °F 24.8 °F 28.4 °F 87% 29.99 in 5.0 mi SE 8.1 mph - N/A Snow Light Snow
10:35 AM 32.0 °F 24.2 °F 28.4 °F 87% 29.97 in 5.0 mi SE 9.2 mph 20.7 mph N/A Snow Light Snow
10:55 AM 32.0 °F 23.0 °F 28.4 °F 87% 29.96 in 1.8 mi SSE 11.5 mph 19.6 mph N/A Snow Light Snow
11:15 AM 32.0 °F 22.5 °F 30.2 °F 93% 29.95 in 3.0 mi SSE 12.7 mph 17.3 mph N/A Snow Light Snow
11:35 AM 32.0 °F 24.8 °F 30.2 °F 93% 29.94 in 4.0 mi SSE 8.1 mph 16.1 mph N/A   Overcast
11:55 AM 32.0 °F 24.2 °F 30.2 °F 93% 29.94 in 4.0 mi SSE 9.2 mph 16.1 mph N/A   Overcast
12:15 PM 32.0 °F 23.6 °F 30.2 °F 93% 29.93 in 3.0 mi SSE 10.4 mph - N/A   Overcast
12:35 PM 33.8 °F 27.7 °F 32.0 °F 93% 29.91 in 7.0 mi SSE 6.9 mph 16.1 mph 0.01 in   Overcast
12:55 PM 33.8 °F 27.0 °F 32.0 °F 93% 29.90 in 10.0 mi South 8.1 mph 21.9 mph 0.01 in   Overcast
1:15 PM 33.8 °F 25.8 °F 32.0 °F 93% 29.89 in 10.0 mi South 10.4 mph 20.7 mph N/A   Overcast
1:35 PM 33.8 °F 25.3 °F 32.0 °F 93% 29.89 in 10.0 mi SSE 11.5 mph 20.7 mph N/A   Overcast
1:55 PM 33.8 °F 24.3 °F 32.0 °F 93% 29.87 in 10.0 mi SSE 13.8 mph 19.6 mph N/A   Overcast
2:15 PM 33.8 °F 25.8 °F 32.0 °F 93% 29.86 in 10.0 mi SSE 10.4 mph 18.4 mph N/A   Overcast
2:35 PM 33.8 °F 25.8 °F 32.0 °F 93% 29.84 in 5.0 mi SSE 10.4 mph 20.7 mph N/A Snow Light Snow
2:55 PM 33.8 °F 25.8 °F 32.0 °F 93% 29.84 in 4.0 mi SSE 10.4 mph 16.1 mph N/A Snow Light Snow
3:15 PM 33.8 °F 26.4 °F 32.0 °F 93% 29.84 in 3.0 mi South 9.2 mph - N/A Snow Light Snow
3:35 PM 33.8 °F 25.8 °F 32.0 °F 93% 29.84 in 3.0 mi South 10.4 mph - N/A Snow Light Snow
3:55 PM 32.0 °F 24.2 °F 32.0 °F 100% 29.83 in 1.5 mi SSE 9.2 mph - N/A Snow Light Snow
4:15 PM 32.0 °F 24.8 °F 32.0 °F 100% 29.83 in 2.0 mi SSE 8.1 mph - N/A Snow Light Snow
4:35 PM 32.0 °F 25.6 °F 32.0 °F 100% 29.82 in 2.5 mi SSE 6.9 mph - N/A   Overcast
4:55 PM 32.0 °F 24.2 °F 32.0 °F 100% 29.81 in 2.0 mi SSE 9.2 mph - N/A   Overcast
5:15 PM 32.0 °F 24.2 °F 32.0 °F 100% 29.79 in 3.0 mi SSE 9.2 mph - N/A   Overcast
5:35 PM 32.0 °F 24.8 °F 32.0 °F 100% 29.80 in 4.0 mi SSE 8.1 mph - N/A   Overcast
5:55 PM 32.0 °F 24.2 °F 32.0 °F 100% 29.79 in 5.0 mi SSE 9.2 mph - N/A   Overcast
6:15 PM 32.0 °F 24.8 °F 32.0 °F 100% 29.79 in 5.0 mi SSE 8.1 mph - N/A   Overcast
6:35 PM 32.0 °F 24.8 °F 32.0 °F 100% 29.79 in 5.0 mi SSE 8.1 mph - N/A   Overcast
6:55 PM 32.0 °F 24.2 °F 32.0 °F 100% 29.79 in 5.0 mi SSE 9.2 mph - N/A   Overcast
7:15 PM 32.0 °F 25.6 °F 32.0 °F 100% 29.79 in 5.0 mi SSE 6.9 mph - 0.01 in   Overcast
7:35 PM 32.0 °F 24.8 °F 32.0 °F 100% 29.77 in 7.0 mi South 8.1 mph - 0.01 in   Overcast
7:55 PM 32.0 °F 24.8 °F 32.0 °F 100% 29.77 in 7.0 mi South 8.1 mph - 0.01 in   Overcast
8:15 PM 32.0 °F 25.6 °F 32.0 °F 100% 29.76 in 10.0 mi SSE 6.9 mph - N/A   Overcast
8:35 PM 32.0 °F 27.5 °F 32.0 °F 100% 29.76 in 7.0 mi SSE 4.6 mph - N/A   Overcast
8:55 PM 32.0 °F 26.4 °F 32.0 °F 100% 29.76 in 10.0 mi South 5.8 mph - N/A   Overcast
9:15 PM 32.0 °F 26.4 °F 32.0 °F 100% 29.76 in 10.0 mi South 5.8 mph - N/A   Overcast
9:35 PM 33.8 °F 27.7 °F 32.0 °F 93% 29.77 in 5.0 mi South 6.9 mph - N/A   Overcast
9:55 PM 32.0 °F 27.5 °F 32.0 °F 100% 29.76 in 4.0 mi South 4.6 mph - 0.01 in   Overcast
10:15 PM 32.0 °F 28.7 °F 32.0 °F 100% 29.76 in 7.0 mi South 3.5 mph - N/A   Overcast
10:35 PM 32.0 °F 27.5 °F 32.0 °F 100% 29.76 in 7.0 mi South 4.6 mph - N/A   Overcast
10:55 PM 32.0 °F 27.5 °F 32.0 °F 100% 29.76 in 5.0 mi South 4.6 mph - N/A   Overcast
11:15 PM 32.0 °F 26.4 °F 32.0 °F 100% 29.76 in 4.0 mi South 5.8 mph - N/A   Overcast
11:35 PM 32.0 °F 27.5 °F 32.0 °F 100% 29.76 in 5.0 mi South 4.6 mph - N/A   Overcast
11:55 PM 32.0 °F - 32.0 °F 100% 29.75 in 5.0 mi Calm Calm - N/A   Overcast